Overview Statistics Trail Chart Weather Telemetry Raw packets
 

This is the latest recevied weather packets stored in our database for station/object SQ3MKP-13. If no packets are shown the sender has not sent any weather packets the latest 10 day(s).

<< 102 103 104 105 106 107 108 >>
Time Temp. Humidity Pressure Rain* Wind** Luminosity Snow
1787831550 23.33° C 43% 1012.2 hPa - - 606 W/m² -
1787831249 23.89° C 42% 1012.3 hPa - - 609 W/m² -
1787830948 23.89° C 43% 1012.3 hPa - - 614 W/m² -
1787830647 23.33° C 43% 1012.4 hPa - - 616 W/m² -
1787830346 23.33° C 42% 1012.4 hPa - - 615 W/m² -
1787830045 23.33° C 43% 1012.5 hPa - - 619 W/m² -
1787829744 23.33° C 44% 1012.5 hPa - - 620 W/m² -
1787829443 23.33° C 43% 1012.5 hPa - - 625 W/m² -
1787829142 23.33° C 43% 1012.6 hPa - - 629 W/m² -
1787828841 23.33° C 45% 1012.6 hPa - - 627 W/m² -
1787828540 23.33° C 44% 1012.6 hPa - - 628 W/m² -
1787828239 23.33° C 42% 1012.6 hPa - - 623 W/m² -
1787827935 23.33° C 41% 1012.6 hPa - - 621 W/m² -
1787827634 22.78° C 44% 1012.7 hPa - - 625 W/m² -
1787827333 23.33° C 43% 1012.8 hPa - - 625 W/m² -
1787827032 23.33° C 44% 1012.8 hPa - - 622 W/m² -
1787826731 22.78° C 45% 1012.8 hPa - - 617 W/m² -
1787826430 23.33° C 44% 1012.8 hPa - - 616 W/m² -
1787826129 22.78° C 45% 1012.8 hPa - - 615 W/m² -
1787825828 23.33° C 45% 1012.8 hPa - - 614 W/m² -
1787825526 22.78° C 46% 1012.8 hPa - - 615 W/m² -
1787825226 22.78° C 42% 1012.8 hPa - - 610 W/m² -
1787824924 22.78° C 45% 1012.7 hPa - - 606 W/m² -
1787824624 22.78° C 43% 1012.9 hPa - - 609 W/m² -
1787824322 23.33° C 44% 1012.8 hPa - - 616 W/m² -

* Rain since midnight (hover to see other rain measurements)
** Current wind speed in m/s (hover to see current wind gust speed)